Weather History for Goodland, KS

Change the Weather History Date:

Thursday, January 31, 2013

  Actual Average Record
Temperature  
Mean Temperature 25 °F 30 °F  
Max Temperature 38 °F 43 °F 75 °F (1989)
Min Temperature 11 °F 17 °F -19 °F (1951)
Degree Days  
Heating Degree Days 40 35  
Month to date heating degree days 1068 1087  
Since 1 July heating degree days 3336 3503  
Cooling Degree Days 0 0  
Month to date cooling degree days 0 0  
Year to date cooling degree days 0 0  
Moisture  
Dew Point 16 °F    
Average Humidity 64    
Maximum Humidity 88    
Minimum Humidity 40    
Precipitation  
Precipitation T in 0.01 in 0.17 in (2014)
Month to date precipitation 0.07 0.38  
Year to date precipitation 0.07 0.38  
Snow  
Snow T in 0.20 in - ()
Month to date snowfall 0.7 5.9  
Since 1 July snowfall 10.7 18.6  
Snow Depth 0.00 in    
Sea Level Pressure  
Sea Level Pressure 30.17 in    
Wind  
Wind Speed 10 mph (NNW)    
Max Wind Speed 26 mph    
Max Gust Speed 33 mph    
Visibility 10 miles    
Events Snow    
T = Trace of Precipitation, MM = Missing Value Source: NWS Daily Summary

Daily Weather History Graph

Daily Weather History Graph

Search for Another Location

Airport:

Trip Planner

Search our weather history database for the weather conditions in past years. The results will help you decide how hot, cold, wet, or windy it might be!

Date:

Astronomy

Jan. 31, 2013 Rise Set
Actual Time 6:54 AM MST 5:06 PM MST
Civil Twilight 6:26 AM MST 5:34 PM MST
Nautical Twilight 5:54 AM MST 6:06 PM MST
Astronomical Twilight 5:22 AM MST 6:38 PM MST
Moon 10:08 PM MST (1/31) 8:57 AM MST (1/31)
Length of Visible Light 11h 08m
Length of Day
10h 11m
Waning Gibbous, 79% of the Moon is Illuminated
Jan 31
Waning Gibbous
Feb 3
Last Quarter
Feb 10
New
Feb 17
First Quarter
Feb 25
Full

Hourly Weather History & Observations

Time (MST) Temp. Windchill Dew Point Humidity Pressure Visibility Wind Dir Wind Speed Gust Speed Precip Events Conditions
12:53 AM 32.0 °F 26.4 °F 19.9 °F 61% 29.94 in 10.0 mi WSW 5.8 mph - 0.00 in   Overcast
1:53 AM 30.9 °F 22.8 °F 19.9 °F 64% 29.95 in 10.0 mi West 9.2 mph - N/A   Overcast
2:53 AM 30.9 °F 23.5 °F 16.0 °F 54% 29.94 in 10.0 mi WSW 8.1 mph - N/A   Overcast
3:53 AM 30.0 °F 21.7 °F 19.0 °F 64% 29.97 in 10.0 mi NNE 9.2 mph - N/A   Overcast
4:53 AM 30.0 °F 21.7 °F 21.9 °F 72% 30.01 in 10.0 mi NNW 9.2 mph - N/A   Overcast
5:53 AM 30.0 °F 18.3 °F 19.9 °F 66% 30.06 in 10.0 mi North 17.3 mph - N/A   Overcast
6:53 AM 28.9 °F 18.2 °F 19.9 °F 69% 30.09 in 9.0 mi North 13.8 mph - 0.00 in Snow Light Snow
7:53 AM 28.9 °F 20.4 °F 21.0 °F 72% 30.14 in 10.0 mi NW 9.2 mph - 0.00 in   Overcast
8:53 AM 33.1 °F 22.6 °F 19.9 °F 59% 30.17 in 10.0 mi NNW 16.1 mph 21.9 mph N/A   Overcast
9:53 AM 34.0 °F 23.0 °F 18.0 °F 52% 30.18 in 10.0 mi NNW 18.4 mph - N/A   Scattered Clouds
10:53 AM 36.0 °F 26.0 °F 18.0 °F 48% 30.19 in 10.0 mi NNW 17.3 mph - N/A   Mostly Cloudy
11:53 AM 37.9 °F 27.6 °F 16.0 °F 41% 30.21 in 10.0 mi North 20.7 mph 31.1 mph N/A   Clear
1:53 PM 36.0 °F 26.3 °F 16.0 °F 44% 30.21 in 10.0 mi North 16.1 mph 21.9 mph N/A   Clear
2:53 PM 34.0 °F 26.6 °F 15.1 °F 46% 30.23 in 10.0 mi NNE 9.2 mph - N/A   Clear
3:53 PM 33.1 °F 25.5 °F 14.0 °F 46% 30.24 in 10.0 mi North 9.2 mph - N/A   Clear
4:53 PM 28.9 °F 23.9 °F 14.0 °F 54% 30.25 in 10.0 mi NE 4.6 mph - N/A   Partly Cloudy
5:53 PM 21.9 °F 17.2 °F 10.9 °F 63% 30.29 in 10.0 mi SE 3.5 mph - N/A   Clear
6:53 PM 19.9 °F 13.4 °F 10.9 °F 68% 30.32 in 10.0 mi SE 4.6 mph - N/A   Mostly Cloudy
7:53 PM 17.1 °F 11.7 °F 9.0 °F 71% 30.34 in 10.0 mi SE 3.5 mph - N/A   Clear
8:53 PM 10.4 °F 2.2 °F 6.8 °F 85% 30.23 in 10.0 mi SSE 4.6 mph - N/A   Clear
9:53 PM 16.0 °F 5.3 °F 12.0 °F 84% 30.33 in 10.0 mi South 8.1 mph - N/A   Clear
10:53 PM 14.0 °F 2.9 °F 10.9 °F 88% 30.32 in 10.0 mi South 8.1 mph - N/A   Clear
11:53 PM 14.0 °F 3.9 °F 10.9 °F 88% 30.30 in 10.0 mi South 6.9 mph - N/A   Clear